Stations météo

réclame
Mon MeteoGroup
Koksijde, Belgique (6400): Température de l'air & dewpoint: 18.08.2019 00:00:00 - 24.08.2019 00:00:00 (CEST)Koksijde, Belgique (6400): Vitesse du vent & gusts: 18.08.2019 00:00:00 - 24.08.2019 00:00:00 (CEST)Koksijde, Belgique (6400): Direction du vent: 18.08.2019 00:00:00 - 24.08.2019 00:00:00 (CEST)Koksijde, Belgique (6400): reduced air pressure: 18.08.2019 00:00:00 - 24.08.2019 00:00:00 (CEST)Koksijde, Belgique (6400): visibility: 18.08.2019 00:00:00 - 24.08.2019 00:00:00 (CEST)
Date & Time tt [°C] td [°C] ff [km/h] ff [knt] fx [km/h] fx [knt] dd ppp [hPa] vv [km]
24.08.2019 00:00:00 15,8 12,8 7 4 11 6 ENE 1022,7 5
23.08.2019 23:00:00 16,7 13,3 7 4 - - ENE 1022,8 6
23.08.2019 22:00:00 17,7 14,2 8 4 11 6 NE 1023,0 7
23.08.2019 21:00:00 18,3 14,2 7 4 18 10 NNE 1023,0 9
23.08.2019 20:00:00 20,7 14,1 14 8 - - NNE 1023,0 10
23.08.2019 19:00:00 21,7 13,0 14 8 22 12 NNE 1023,2 12
23.08.2019 18:00:00 22,5 12,2 18 10 25 14 NNE 1023,7 17
23.08.2019 17:00:00 22,6 13,1 14 8 - - NNE 1024,2 14
23.08.2019 16:00:00 22,2 13,5 14 8 22 12 N 1024,7 15
23.08.2019 15:00:00 22,7 14,1 14 8 22 12 N 1025,0 15
23.08.2019 14:00:00 22,7 13,7 18 10 - - NNW 1025,2 15
23.08.2019 13:00:00 23,1 10,4 4 2 14 8 N 1025,7 15
23.08.2019 12:00:00 21,4 12,7 4 2 7 4 N 1026,2 15
23.08.2019 11:00:00 20,0 13,8 4 2 - - N 1026,5 15
23.08.2019 10:00:00 17,0 12,8 4 2 7 4 N 1026,5 10
23.08.2019 09:00:00 13,6 11,0 4 2 4 2 N 1026,4 10
23.08.2019 08:00:00 10,8 8,8 4 2 - - N 1026,2 10
23.08.2019 07:00:00 9,6 7,5 0 0 4 2 N 1026,0 10
23.08.2019 06:00:00 9,6 7,8 4 2 4 2 N 1025,9 9
23.08.2019 05:00:00 9,8 7,6 4 2 - - N 1026,0 9
23.08.2019 04:00:00 10,4 7,7 4 2 4 2 N 1026,2 12
23.08.2019 03:00:00 10,8 7,9 4 2 7 4 N 1026,2 14
23.08.2019 02:00:00 11,3 8,1 4 2 - - N 1026,4 15
23.08.2019 01:00:00 11,5 8,0 4 2 4 2 N 1026,2 16
23.08.2019 00:00:00 12,5 8,3 4 2 7 4 N 1026,2 17
22.08.2019 23:00:00 13,0 8,4 4 2 - - N 1026,2 18
22.08.2019 22:00:00 15,0 8,5 7 4 14 8 N 1026,2 19
22.08.2019 21:00:00 16,3 8,5 11 6 18 10 SW 1025,7 20
22.08.2019 20:00:00 19,5 8,4 11 6 - - W 1025,5 19
22.08.2019 19:00:00 20,2 10,7 18 10 29 16 WNW 1025,5 20
22.08.2019 18:00:00 20,6 10,8 18 10 40 21 WNW 1025,5 19
22.08.2019 17:00:00 21,0 11,1 22 12 - - WNW 1025,5 18
22.08.2019 16:00:00 20,3 11,8 22 12 29 16 WNW 1025,7 20
22.08.2019 15:00:00 20,7 10,9 18 10 25 14 WNW 1026,0 20
22.08.2019 14:00:00 20,6 12,4 18 10 - - WNW 1026,4 20
22.08.2019 13:00:00 20,3 10,5 14 8 22 12 NW 1026,5 20
22.08.2019 12:00:00 19,9 11,5 11 6 18 10 WNW 1026,5 20
22.08.2019 11:00:00 19,0 12,9 11 6 - - W 1026,4 13
22.08.2019 10:00:00 17,7 13,3 11 6 18 10 W 1026,4 10
22.08.2019 09:00:00 13,9 12,0 4 2 7 4 N 1026,2 10
22.08.2019 08:00:00 10,8 9,6 4 2 - - N 1026,0 8
22.08.2019 07:00:00 10,3 9,2 4 2 7 4 - 1025,7 6
22.08.2019 06:00:00 10,3 9,4 4 2 4 2 N 1025,2 5
22.08.2019 05:00:00 10,1 9,1 4 2 - - N 1025,4 4,2
22.08.2019 04:00:00 10,8 9,4 4 2 11 6 N 1025,5 3,3
22.08.2019 03:00:00 11,2 9,6 4 2 4 2 - 1025,7 4,8
22.08.2019 02:00:00 11,6 9,9 4 2 - - N 1025,9 7
22.08.2019 01:00:00 13,0 10,8 4 2 4 2 N 1026,2 11
22.08.2019 00:00:00 12,9 10,2 4 2 4 2 N 1026,7 12
21.08.2019 23:00:00 13,8 10,8 4 2 - - N 1026,9 14
21.08.2019 22:00:00 15,1 10,5 4 2 7 4 N 1026,9 16
21.08.2019 21:00:00 16,6 10,9 4 2 14 8 N 1026,5 17
21.08.2019 20:00:00 18,2 10,9 11 6 - - NNE 1026,5 17
21.08.2019 19:00:00 19,3 9,9 15 8 22 12 N 1026,7 5
21.08.2019 18:00:00 20,1 10,3 14 8 22 12 N 1026,7 16
21.08.2019 17:00:00 20,7 9,7 11 6 - - N 1026,9 16
21.08.2019 16:00:00 20,5 10,0 11 6 22 12 N 1027,2 20
21.08.2019 15:00:00 20,4 10,7 14 8 22 12 NNW 1027,7 15
21.08.2019 14:00:00 21,2 10,8 11 6 - - NNW 1027,9 15
21.08.2019 13:00:00 21,0 8,8 7 4 14 8 SW 1028,2 15
21.08.2019 12:00:00 20,6 8,4 4 2 14 8 N 1028,7 12
21.08.2019 11:00:00 19,4 11,8 4 2 - - N 1028,7 12
21.08.2019 10:00:00 17,0 14,2 4 2 7 4 N 1028,9 8
21.08.2019 09:00:00 13,6 12,6 4 2 4 2 - 1028,7 8
21.08.2019 08:00:00 10,8 10,6 2 1 - - - 1028,2 2,5
21.08.2019 07:00:00 9,6 9,2 4 2 4 2 N 1028,0 1,2
21.08.2019 06:00:00 10,0 9,4 5 3 7 4 SSW 1027,5 2,7
21.08.2019 05:00:00 10,6 9,9 4 2 - - N 1027,4 4,5
21.08.2019 04:00:00 10,5 9,5 7 4 7 4 SW 1027,4 6
21.08.2019 03:00:00 11,3 10,1 7 4 11 6 WSW 1027,2 8
21.08.2019 02:00:00 11,6 10,3 7 4 - - WSW 1027,4 8
21.08.2019 01:00:00 12,0 10,3 7 4 11 6 WSW 1027,2 10
21.08.2019 00:00:00 12,2 10,2 7 4 11 6 SW 1027,2 11
20.08.2019 23:00:00 12,3 9,9 7 4 - - SW 1027,0 12
20.08.2019 22:00:00 13,8 9,9 7 4 18 10 SW 1026,7 14
20.08.2019 21:00:00 16,5 9,8 11 6 22 12 WSW 1026,2 17
20.08.2019 20:00:00 18,2 11,0 18 10 - - W 1025,5 19
20.08.2019 19:00:00 19,0 10,5 18 10 32 18 W 1025,2 20
20.08.2019 18:00:00 19,7 8,6 22 12 32 18 W 1024,7 15
20.08.2019 17:00:00 19,1 10,0 26 14 - - WNW 1024,2 10
20.08.2019 16:00:00 20,2 10,3 22 12 36 19 WNW 1024,0 20
20.08.2019 15:00:00 19,6 9,3 26 14 36 19 WNW 1023,7 10
20.08.2019 14:00:00 19,3 9,1 22 12 - - WNW 1023,6 20
20.08.2019 13:00:00 19,0 11,2 22 12 36 19 W 1023,2 20
20.08.2019 12:00:00 18,4 11,0 25 14 36 19 W 1023,1 20
20.08.2019 11:00:00 17,9 9,9 22 12 - - WSW 1023,0 20
20.08.2019 10:00:00 16,8 13,3 14 8 22 12 WSW 1022,3 15
20.08.2019 09:00:00 14,6 13,0 11 6 18 10 SW 1022,1 15
20.08.2019 08:00:00 13,1 11,9 7 4 - - SW 1021,7 10
20.08.2019 07:00:00 12,1 11,2 9 5 11 6 SW 1021,0 7
20.08.2019 06:00:00 11,3 10,5 11 6 11 6 SSW 1020,5 6
20.08.2019 05:00:00 11,7 10,6 7 4 - - N 1020,5 8
20.08.2019 04:00:00 11,8 10,6 7 4 11 6 SSW 1020,3 8
20.08.2019 03:00:00 12,2 10,9 7 4 14 8 SW 1020,2 8
20.08.2019 02:00:00 12,4 11,0 11 6 - - SSW 1020,2 9
20.08.2019 01:00:00 12,8 11,0 11 6 22 12 SW 1019,8 9
20.08.2019 00:00:00 13,6 11,0 11 6 14 8 SW 1019,6 11
19.08.2019 23:00:00 13,8 10,8 11 6 - - SW 1019,2 11
19.08.2019 22:00:00 14,8 10,8 14 8 32 18 SW 1019,0 11
19.08.2019 21:00:00 16,2 10,1 22 12 43 23 WSW 1018,2 13
19.08.2019 20:00:00 17,9 8,7 25 14 - - WSW 1017,8 19
19.08.2019 19:00:00 18,9 9,1 36 19 47 25 WSW 1017,7 20
19.08.2019 18:00:00 19,7 9,7 29 16 47 25 WSW 1017,3 20
19.08.2019 17:00:00 20,1 9,7 32 18 - - WSW 1017,1 20
19.08.2019 16:00:00 20,8 9,9 32 18 47 25 WSW 1016,7 20
19.08.2019 15:00:00 21,5 10,9 29 16 47 25 WSW 1016,6 20
19.08.2019 14:00:00 19,5 9,1 32 18 - - WSW 1016,2 20
19.08.2019 13:00:00 19,7 11,3 22 12 40 21 W 1015,7 20
19.08.2019 12:00:00 19,8 10,7 29 16 40 21 WSW 1015,3 20
19.08.2019 11:00:00 17,3 12,5 25 14 - - W 1015,1 15
19.08.2019 10:00:00 17,3 12,8 22 12 36 19 SW 1014,5 13
19.08.2019 09:00:00 15,4 12,4 22 12 32 18 SSW 1014,2 12
19.08.2019 08:00:00 13,4 11,8 14 8 - - SSW 1014,1 10
19.08.2019 07:00:00 - - - - - - - - -
19.08.2019 06:00:00 - - - - - - - - -
19.08.2019 05:00:00 - - - - - - - - -
19.08.2019 04:00:00 - - - - - - - - -
19.08.2019 03:00:00 - - - - - - - - -
19.08.2019 02:00:00 - - - - - - - - -
19.08.2019 01:00:00 - - - - - - - - -
19.08.2019 00:00:00 - - - - - - - - -
18.08.2019 23:00:00 - - - - - - - - -
18.08.2019 22:00:00 - - - - - - - - -
18.08.2019 21:00:00 - - - - - - - - -
18.08.2019 20:00:00 - - - - - - - - -
18.08.2019 19:00:00 - - - - - - - - -
18.08.2019 18:00:00 - - - - - - - - -
18.08.2019 17:00:00 - - - - - - - - -
18.08.2019 16:00:00 - - - - - - - - -
18.08.2019 15:00:00 - - - - - - - - -
18.08.2019 14:00:00 - - - - - - - - -
18.08.2019 13:00:00 - - - - - - - - -
18.08.2019 12:00:00 - - - - - - - - -
18.08.2019 11:00:00 - - - - - - - - -
18.08.2019 10:00:00 - - - - - - - - -
18.08.2019 09:00:00 - - - - - - - - -
18.08.2019 08:00:00 - - - - - - - - -
18.08.2019 07:00:00 - - - - - - - - -
18.08.2019 06:00:00 - - - - - - - - -
18.08.2019 05:00:00 - - - - - - - - -
18.08.2019 04:00:00 - - - - - - - - -
18.08.2019 03:00:00 - - - - - - - - -
18.08.2019 02:00:00 - - - - - - - - -
18.08.2019 01:00:00 - - - - - - - - -
18.08.2019 00:00:00 - - - - - - - - -

tt = Température de l'air
td = dewpoint
ff = Vitesse du vent
fx = gusts
dd = Direction du vent
ppp = reduced air pressure
vv = visibility

stations d'obs. à proximité